• En España
  • Lista de países
  • Para 7 días
  • Temperatura del agua
  • Mapa Satelital
  • El tiempo en el mapa
  • Informadores
  • user-avatar
    Iniciar sesión

    Tiempo cada hora Wien

    Hoy, 24 Agosto, Jueves

    Tiempo Temperatura Precipitaciones Viento Presión Humedad
    00:00 +15°C° 0 mm 1 mps 745 mmHg 60%
    01:00 +14°C° 0 mm 1 mps 745 mmHg 61%
    02:00 +14°C° 0 mm 1 mps 745 mmHg 63%
    03:00 +14°C° 0 mm 1 mps 745 mmHg 65%
    04:00 +13°C° 0 mm 1 mps 745 mmHg 66%
    05:00 +15°C° 0 mm 1 mps 745 mmHg 64%
    06:00 +16°C° 0 mm 1 mps 745 mmHg 61%
    07:00 +18°C° 0 mm 1 mps 745 mmHg 58%
    08:00 +21°C° 0 mm 1 mps 745 mmHg 53%
    09:00 +23°C° 0 mm 1 mps 745 mmHg 47%
    10:00 +25°C° 0 mm 1 mps 745 mmHg 42%
    11:00 +27°C° 0 mm 2 mps 745 mmHg 39%
    12:00 +28°C° 0 mm 2 mps 745 mmHg 37%
    13:00 +30°C° 0 mm 2 mps 745 mmHg 34%
    14:00 +30°C° 0,1 mm 2 mps 745 mmHg 35%
    15:00 +31°C° 0,1 mm 2 mps 744 mmHg 36%
    16:00 +31°C° 0,1 mm 2 mps 744 mmHg 38%
    17:00 +29°C° 0,2 mm 2 mps 744 mmHg 45%
    18:00 +27°C° 0,2 mm 2 mps 744 mmHg 52%
    19:00 +25°C° 0,2 mm 2 mps 744 mmHg 60%
    20:00 +24°C° 0,2 mm 2 mps 744 mmHg 63%
    21:00 +23°C° 0,2 mm 2 mps 745 mmHg 67%
    22:00 +21°C° 0,2 mm 2 mps 745 mmHg 71%
    23:00 +22°C° 0 mm 1 mps 745 mmHg 72%

    Mañana, 25 Agosto, Viernes

    Tiempo Temperatura Precipitaciones Viento Presión Humedad
    00:00 +22°C° 0 mm 1 mps 745 mmHg 73%
    01:00 +22°C° 0 mm 1 mps 745 mmHg 75%
    02:00 +21°C° 0 mm 1 mps 745 mmHg 77%
    03:00 +21°C° 0 mm 1 mps 745 mmHg 79%
    04:00 +20°C° 0 mm 1 mps 745 mmHg 82%
    05:00 +21°C° 0 mm 1 mps 745 mmHg 79%
    06:00 +22°C° 0 mm 1 mps 745 mmHg 76%
    07:00 +23°C° 0 mm 1 mps 746 mmHg 73%
    08:00 +25°C° 0 mm 1 mps 746 mmHg 66%
    09:00 +27°C° 0 mm 1 mps 746 mmHg 59%
    10:00 +29°C° 0 mm 1 mps 746 mmHg 52%
    11:00 +30°C° 0 mm 1 mps 745 mmHg 48%
    12:00 +32°C° 0 mm 1 mps 745 mmHg 43%
    13:00 +33°C° 0 mm 1 mps 745 mmHg 39%
    14:00 +33°C° 0 mm 1 mps 745 mmHg 38%
    15:00 +33°C° 0 mm 1 mps 744 mmHg 36%
    16:00 +33°C° 0 mm 1 mps 744 mmHg 35%
    17:00 +31°C° 0 mm 1 mps 744 mmHg 40%
    18:00 +29°C° 0 mm 1 mps 744 mmHg 45%
    19:00 +27°C° 0 mm 1 mps 744 mmHg 50%
    20:00 +26°C° 0 mm 1 mps 744 mmHg 53%
    21:00 +25°C° 0 mm 1 mps 744 mmHg 56%
    22:00 +25°C° 0 mm 1 mps 744 mmHg 59%
    23:00 +24°C° 0 mm 1 mps 744 mmHg 61%

    Pasado mañana, 26 Agosto, Sábado

    Tiempo Temperatura Precipitaciones Viento Presión Humedad
    00:00 +23°C° 0 mm 1 mps 744 mmHg 64%
    01:00 +23°C° 0 mm 1 mps 744 mmHg 66%
    02:00 +22°C° 0 mm 1 mps 744 mmHg 68%
    03:00 +22°C° 0 mm 1 mps 744 mmHg 70%
    04:00 +22°C° 0 mm 1 mps 744 mmHg 71%
    05:00 +22°C° 0,1 mm 1 mps 744 mmHg 70%
    06:00 +23°C° 0,1 mm 1 mps 745 mmHg 68%
    07:00 +24°C° 0,1 mm 1 mps 745 mmHg 67%
    08:00 +26°C° 0 mm 1 mps 745 mmHg 60%
    09:00 +29°C° 0 mm 1 mps 745 mmHg 53%
    10:00 +31°C° 0 mm 1 mps 745 mmHg 47%
    11:00 +32°C° 0 mm 1 mps 745 mmHg 43%
    12:00 +33°C° 0 mm 1 mps 744 mmHg 39%
    13:00 +34°C° 0 mm 1 mps 744 mmHg 35%
    14:00 +34°C° 0 mm 1 mps 744 mmHg 34%
    15:00 +34°C° 0 mm 1 mps 744 mmHg 34%
    16:00 +34°C° 0 mm 1 mps 743 mmHg 33%
    17:00 +32°C° 0,2 mm 1 mps 743 mmHg 39%
    18:00 +30°C° 0,2 mm 1 mps 743 mmHg 44%
    19:00 +28°C° 0,2 mm 1 mps 743 mmHg 50%
    20:00 +27°C° 0,2 mm 1 mps 743 mmHg 54%
    21:00 +26°C° 0,2 mm 1 mps 744 mmHg 57%
    22:00 +25°C° 0,2 mm 1 mps 744 mmHg 60%
    23:00 +25°C° 0,2 mm 1 mps 744 mmHg 63%

    27 Agosto, Domingo

    Tiempo Temperatura Precipitaciones Viento Presión Humedad
    00:00 +24°C° 0,2 mm 1 mps 744 mmHg 65%
    01:00 +24°C° 0,2 mm 1 mps 744 mmHg 68%
    02:00 +23°C° 0,2 mm 1 mps 743 mmHg 69%
    03:00 +23°C° 0,2 mm 1 mps 743 mmHg 71%
    04:00 +23°C° 0,2 mm 1 mps 743 mmHg 72%
    05:00 +24°C° 0 mm 1 mps 743 mmHg 71%
    06:00 +24°C° 0 mm 1 mps 744 mmHg 69%
    07:00 +25°C° 0 mm 1 mps 744 mmHg 67%
    08:00 +27°C° 0 mm 1 mps 744 mmHg 59%
    09:00 +29°C° 0 mm 1 mps 744 mmHg 52%
    10:00 +32°C° 0 mm 1 mps 744 mmHg 44%
    11:00 +33°C° 0 mm 1 mps 744 mmHg 40%
    12:00 +34°C° 0 mm 1 mps 743 mmHg 37%
    13:00 +35°C° 0 mm 1 mps 743 mmHg 33%
    14:00 +35°C° 0 mm 1 mps 743 mmHg 32%
    15:00 +35°C° 0 mm 1 mps 742 mmHg 32%
    16:00 +35°C° 0 mm 1 mps 742 mmHg 32%
    17:00 +33°C° 0,1 mm 1 mps 742 mmHg 37%
    18:00 +31°C° 0,1 mm 1 mps 742 mmHg 43%
    19:00 +27°C° 0,1 mm 0 mps 742 mmHg 48%
    20:00 +28°C° 0,2 mm 1 mps 742 mmHg 52%
    21:00 +27°C° 0,2 mm 1 mps 742 mmHg 55%
    22:00 +26°C° 0,2 mm 1 mps 742 mmHg 59%
    23:00 +26°C° 0,6 mm 2 mps 742 mmHg 62%

    28 Agosto, Lunes

    Tiempo Temperatura Precipitaciones Viento Presión Humedad
    00:00 +25°C° 0,6 mm 2 mps 742 mmHg 65%
    01:00 +25°C° 0,6 mm 2 mps 742 mmHg 68%
    02:00 +24°C° 0,2 mm 3 mps 742 mmHg 72%
    03:00 +22°C° 0,2 mm 3 mps 742 mmHg 77%
    04:00 +22°C° 0,2 mm 3 mps 742 mmHg 81%
    05:00 +22°C° 0 mm 4 mps 743 mmHg 80%
    06:00 +23°C° 0 mm 4 mps 743 mmHg 78%
    07:00 +23°C° 0 mm 4 mps 744 mmHg 77%
    08:00 +25°C° 0 mm 5 mps 744 mmHg 69%
    09:00 +27°C° 0 mm 5 mps 744 mmHg 60%
    10:00 +28°C° 0 mm 6 mps 744 mmHg 52%
    11:00 +29°C° 0 mm 6 mps 744 mmHg 49%
    12:00 +30°C° 0 mm 6 mps 744 mmHg 46%
    13:00 +32°C° 0 mm 6 mps 744 mmHg 43%
    14:00 +30°C° 0 mm 5 mps 744 mmHg 44%
    15:00 +30°C° 0 mm 5 mps 744 mmHg 45%
    16:00 +30°C° 0 mm 5 mps 744 mmHg 46%
    17:00 +28°C° 0 mm 4 mps 744 mmHg 51%
    18:00 +27°C° 0 mm 4 mps 744 mmHg 57%
    19:00 +25°C° 0 mm 3 mps 744 mmHg 62%
    20:00 +24°C° 0 mm 2 mps 744 mmHg 66%
    21:00 +23°C° 0 mm 2 mps 744 mmHg 70%
    22:00 +21°C° 0 mm 2 mps 745 mmHg 74%
    23:00 +21°C° 0 mm 2 mps 745 mmHg 76%

    29 Agosto, Martes

    Tiempo Temperatura Precipitaciones Viento Presión Humedad
    00:00 +20°C° 0 mm 2 mps 745 mmHg 79%
    01:00 +21°C° 0 mm 1 mps 745 mmHg 81%
    02:00 +20°C° 0 mm 1 mps 745 mmHg 82%
    03:00 +20°C° 0 mm 1 mps 745 mmHg 83%
    04:00 +20°C° 0 mm 1 mps 745 mmHg 85%
    05:00 +20°C° 0 mm 1 mps 745 mmHg 81%
    06:00 +21°C° 0 mm 1 mps 745 mmHg 78%
    07:00 +22°C° 0 mm 1 mps 745 mmHg 75%
    08:00 +24°C° 0 mm 1 mps 745 mmHg 68%
    09:00 +25°C° 0 mm 1 mps 745 mmHg 61%
    10:00 +27°C° 0 mm 1 mps 745 mmHg 54%
    11:00 +28°C° 0 mm 1 mps 745 mmHg 51%
    12:00 +29°C° 0 mm 1 mps 744 mmHg 47%
    13:00 +30°C° 0 mm 1 mps 744 mmHg 43%
    14:00 +30°C° 0 mm 1 mps 744 mmHg 42%
    15:00 +30°C° 0 mm 1 mps 744 mmHg 42%
    16:00 +30°C° 0 mm 1 mps 743 mmHg 41%
    17:00 +28°C° 0 mm 1 mps 743 mmHg 46%
    18:00 +27°C° 0 mm 1 mps 743 mmHg 50%
    19:00 +25°C° 0 mm 1 mps 743 mmHg 55%
    20:00 +24°C° 0 mm 1 mps 744 mmHg 57%
    21:00 +23°C° 0 mm 1 mps 744 mmHg 59%
    22:00 +23°C° 0 mm 1 mps 744 mmHg 61%
    23:00 +22°C° 0 mm 1 mps 744 mmHg 62%
    Mostrar más